{"data":{"norad_id":53488,"intl_designator":"2022-099Z","name":"STARLINK-4421","alt_names":[],"object_type":"PAYLOAD","status":"ACTIVE","operator":null,"country":"US","launch_date":"2022-08-12","launch_site_code":"AFWTR","launch_vehicle":null,"mission":null,"orbit_class":"UNKNOWN","rcs_meters":null,"size_class":null,"mass_kg":null,"dimensions":null,"purposes":["comms"],"wikipedia_slug":null,"has_3d_model":false,"image_url":null,"decayed_at":null,"tle_current":{"epoch":"2026-05-25T01:27:12.953376Z","epoch_age_seconds":66501,"freshness":"FRESH","line1":"1 53488U 22099Z   26145.06056659 -.00000227  00000+0 -11705-4 0  9995","line2":"2 53488  97.4465 266.1809 0002317 107.6873 252.4607 15.05646503207541","mean_motion":15.05646503,"eccentricity":0.0002317,"inclination_deg":97.4465,"raan_deg":266.1809,"arg_perigee_deg":107.6873,"mean_anomaly_deg":252.4607,"bstar":-1.1705e-5,"rev_number":20754,"period_min":95.639979047592,"perigee_km":547.916742198,"apogee_km":551.12701932335,"semimajor_km":6927.6588807607,"source":"CELESTRAK","updated_at":"2026-05-25T13:38:17.434418Z"}}}